User: anonymous   Login
Location: Unspecified
(0.0000°N, 0.0000°E)
Time: 15:26:10
(UTC+00:00)
Language:

HO-68 - Orbit

View from above orbital plane
View from above orbital plane
View from above satellite
View from above satellite

Ground track
Ground track

The orbit data is extracted from the following two-line orbital elements,

1 36122U 09072B   14295.12800447  .00000024  00000-0  17612-3 0   525
2 36122 100.2327 343.0513 0006878 308.2672 105.6956 13.16319009233134
Epoch (UTC): 22 October 2014 03:04:19
Eccentricity: 0.0006878
inclination: 100.2327°
perigee height: 1193 km
apogee height: 1204 km
right ascension of ascending node: 343.0513°
argument of perigee: 308.2672°
revolutions per day: 13.16319009
mean anomaly at epoch: 105.6956°
orbit number at epoch: 23313

The dashed part of the orbit path shows where the satellite is in the earth's shadow,  

DLR